AIB35K EHAM-EGPH

Flight info

Callsign AIB35K
Flight time 1h 5m
Altitude 38000
Route EHAM/09 BERGI3N BERGI L602 SUPUR P1 GODOS DCT ROXAT DCT BAZNA DCT ANMAZ DCT AGPED AGPED1E EGPH/24
Aircraft A35K/H-SDE2E3GHIJ3J4J5LM1ORWXY/LB1D1

Departure

Time 2026-05-04 19:26
Airport Amsterdam Airport Schiphol (EHAM)

Arrival

Time 2026-05-04 20:31
Airport Edinburgh Airport (EGPH)
Time Latitude Longitude Altitude Speed Heading
2026-05-04 18:56 52.31230 4.77165 5 ft 0 kts 183°
2026-05-04 19:14 52.31232 4.77165 5 ft 2 kts 184°
2026-05-04 19:15 52.31256 4.77170 7 ft 4 kts 200°
2026-05-04 19:15 52.31277 4.77188 7 ft 4 kts 226°
2026-05-04 19:15 52.31290 4.77218 7 ft 4 kts 253°
2026-05-04 19:15 52.31295 4.77258 7 ft 4 kts 269°
2026-05-04 19:16 52.31294 4.77298 6 ft 2 kts 273°
2026-05-04 19:16 52.31294 4.77299 6 ft 5 kts 273°
2026-05-04 19:20 52.31295 4.77289 6 ft 3 kts 272°
2026-05-04 19:20 52.31307 4.77232 8 ft 7 kts 306°
2026-05-04 19:20 52.31364 4.77197 5 ft 11 kts 351°
2026-05-04 19:21 52.31455 4.77194 5 ft 15 kts
2026-05-04 19:21 52.31536 4.77182 5 ft 12 kts 332°
2026-05-04 19:21 52.31563 4.77048 5 ft 15 kts 272°
2026-05-04 19:21 52.31560 4.76853 5 ft 19 kts 267°
2026-05-04 19:22 52.31552 4.76611 5 ft 23 kts 267°
2026-05-04 19:22 52.31541 4.76325 5 ft 27 kts 266°
2026-05-04 19:22 52.31530 4.76013 5 ft 27 kts 266°
2026-05-04 19:22 52.31521 4.75738 5 ft 14 kts 266°
2026-05-04 19:23 52.31515 4.75557 5 ft 18 kts 267°
2026-05-04 19:23 52.31507 4.75324 5 ft 23 kts 267°
2026-05-04 19:23 52.31498 4.75043 5 ft 27 kts 267°
2026-05-04 19:23 52.31489 4.74806 5 ft 16 kts 266°
2026-05-04 19:24 52.31520 4.74687 5 ft 12 kts 329°
2026-05-04 19:24 52.31612 4.74670 5 ft 11 kts 12°
2026-05-04 19:24 52.31660 4.74741 5 ft 11 kts 68°
2026-05-04 19:24 52.31669 4.74827 5 ft 0 kts 84°
2026-05-04 19:25 52.31669 4.74833 4 ft 3 kts 84°
2026-05-04 19:25 52.31686 4.75199 4 ft 73 kts 87°
2026-05-04 19:25 52.31727 4.76501 5 ft 153 kts 85°
2026-05-04 19:25 52.31756 4.78477 497 ft 184 kts 84°
2026-05-04 19:26 52.31615 4.80561 1559 ft 184 kts 94°
2026-05-04 19:26 52.31916 4.82619 2056 ft 198 kts 55°
2026-05-04 19:26 52.33076 4.83855 2574 ft 210 kts 13°
2026-05-04 19:26 52.34534 4.83508 3199 ft 220 kts 333°
2026-05-04 19:27 52.35761 4.81983 3948 ft 224 kts 323°
2026-05-04 19:27 52.37132 4.80737 4769 ft 227 kts 337°
2026-05-04 19:27 52.38565 4.79447 5309 ft 246 kts 320°
2026-05-04 19:27 52.39825 4.77491 5949 ft 258 kts 315°
2026-05-04 19:28 52.41106 4.75383 6713 ft 264 kts 314°
2026-05-04 19:28 52.42410 4.73222 7502 ft 269 kts 314°
2026-05-04 19:28 52.43723 4.71037 8312 ft 273 kts 314°
2026-05-04 19:28 52.45069 4.68791 9189 ft 276 kts 313°
2026-05-04 19:29 52.46480 4.66611 10019 ft 281 kts 320°
2026-05-04 19:29 52.48221 4.64975 10534 ft 299 kts 334°
2026-05-04 19:29 52.50206 4.63648 10866 ft 318 kts 337°
2026-05-04 19:29 52.52321 4.62315 11336 ft 330 kts 337°
2026-05-04 19:30 52.54491 4.60954 12017 ft 336 kts 338°
2026-05-04 19:30 52.56694 4.59562 12718 ft 340 kts 337°
2026-05-04 19:30 52.58911 4.58136 13436 ft 344 kts 337°
2026-05-04 19:30 52.61120 4.56706 14078 ft 347 kts 337°
2026-05-04 19:31 52.63384 4.55242 14672 ft 352 kts 337°
2026-05-04 19:31 52.65666 4.53719 15275 ft 356 kts 334°
2026-05-04 19:31 52.67738 4.51723 15857 ft 357 kts 321°
2026-05-04 19:31 52.69501 4.48828 16490 ft 359 kts 307°
2026-05-04 19:32 52.70487 4.46632 16901 ft 361 kts 304°
2026-05-04 19:32 52.71912 4.43209 17531 ft 364 kts 303°
2026-05-04 19:32 52.73339 4.39733 18165 ft 368 kts 302°
2026-05-04 19:32 52.74760 4.36204 18739 ft 370 kts 301°
2026-05-04 19:33 52.76104 4.32564 19309 ft 372 kts 299°
2026-05-04 19:33 52.77397 4.28854 19904 ft 374 kts 298°
2026-05-04 19:33 52.78668 4.25092 20510 ft 376 kts 297°
2026-05-04 19:33 52.79930 4.21297 21105 ft 377 kts 297°
2026-05-04 19:34 52.81188 4.17486 21680 ft 379 kts 296°
2026-05-04 19:34 52.82459 4.13647 22251 ft 381 kts 296°
2026-05-04 19:34 52.83743 4.09792 22826 ft 384 kts 296°
2026-05-04 19:34 52.85038 4.05920 23397 ft 386 kts 296°
2026-05-04 19:35 52.86347 4.02021 23897 ft 388 kts 296°
2026-05-04 19:35 52.87666 3.98091 24302 ft 393 kts 296°
2026-05-04 19:35 52.88999 3.94118 24724 ft 397 kts 296°
2026-05-04 19:35 52.90343 3.90108 25168 ft 400 kts 296°
2026-05-04 19:36 52.91700 3.86050 25618 ft 404 kts 295°
2026-05-04 19:36 52.93066 3.81960 26103 ft 407 kts 295°
2026-05-04 19:36 52.94429 3.77870 26601 ft 411 kts 295°
2026-05-04 19:36 52.95815 3.73702 27121 ft 415 kts 295°
2026-05-04 19:37 52.97216 3.69483 27678 ft 419 kts 295°
2026-05-04 19:37 52.98672 3.65265 28225 ft 425 kts 298°
2026-05-04 19:37 53.00434 3.61282 28783 ft 434 kts 306°
2026-05-04 19:37 53.02594 3.57717 29355 ft 443 kts 316°
2026-05-04 19:38 53.05158 3.54757 29931 ft 454 kts 326°
2026-05-04 19:38 53.08048 3.52540 30458 ft 461 kts 334°
2026-05-04 19:38 53.11063 3.50656 31035 ft 464 kts 336°
2026-05-04 19:38 53.14123 3.48896 31634 ft 466 kts 338°
2026-05-04 19:39 53.17207 3.47182 32209 ft 468 kts 338°
2026-05-04 19:39 53.20251 3.45233 32750 ft 468 kts 332°
2026-05-04 19:39 53.23104 3.42619 33274 ft 467 kts 324°
2026-05-04 19:39 53.25597 3.39389 33744 ft 466 kts 315°
2026-05-04 19:40 53.27729 3.35532 34146 ft 466 kts 306°
2026-05-04 19:40 53.29622 3.31106 34511 ft 469 kts 302°
2026-05-04 19:40 53.31425 3.26539 34826 ft 472 kts 301°
2026-05-04 19:40 53.33191 3.21886 35173 ft 475 kts 300°
2026-05-04 19:41 53.34945 3.17178 35643 ft 476 kts 300°
2026-05-04 19:41 53.36690 3.12478 36138 ft 476 kts 300°
2026-05-04 19:41 53.38446 3.07775 36618 ft 476 kts 300°
2026-05-04 19:41 53.40214 3.03081 37075 ft 477 kts 301°
2026-05-04 19:42 53.42176 2.98585 37527 ft 479 kts 307°
2026-05-04 19:42 53.44254 2.94326 37940 ft 481 kts 308°
2026-05-04 19:42 53.46416 2.90018 38050 ft 481 kts 308°
2026-05-04 19:43 53.50761 2.81491 38051 ft 481 kts 308°
2026-05-04 19:43 53.55121 2.72960 38051 ft 481 kts 308°
2026-05-04 19:44 53.59472 2.64406 38052 ft 481 kts 308°
2026-05-04 19:44 53.63808 2.55836 38058 ft 480 kts 308°
2026-05-04 19:45 53.68137 2.47244 38045 ft 480 kts 308°
2026-05-04 19:45 53.72427 2.38700 38053 ft 480 kts 308°
2026-05-04 19:46 53.76740 2.30081 38055 ft 480 kts 308°
2026-05-04 19:46 53.81053 2.21432 38055 ft 480 kts 308°
2026-05-04 19:47 53.85354 2.12778 38058 ft 480 kts 308°
2026-05-04 19:47 53.89648 2.04107 38061 ft 480 kts 308°
2026-05-04 19:48 53.93941 1.95406 38066 ft 481 kts 308°
2026-05-04 19:48 53.98204 1.86738 38064 ft 481 kts 308°
2026-05-04 19:49 54.02482 1.78008 38058 ft 481 kts 308°
2026-05-04 19:49 54.06763 1.69241 38045 ft 481 kts 308°
2026-05-04 19:50 54.11033 1.60466 38043 ft 481 kts 308°
2026-05-04 19:50 54.15295 1.51677 38047 ft 480 kts 308°
2026-05-04 19:51 54.19197 1.42463 38061 ft 479 kts 298°
2026-05-04 19:51 54.22303 1.32416 38063 ft 478 kts 296°
2026-05-04 19:52 54.25229 1.22211 38059 ft 478 kts 295°
2026-05-04 19:52 54.28120 1.11982 38064 ft 478 kts 295°
2026-05-04 19:53 54.31020 1.01751 38045 ft 477 kts 295°
2026-05-04 19:53 54.33905 0.91577 38042 ft 477 kts 295°
2026-05-04 19:53 54.35347 0.86478 37814 ft 476 kts 295°
2026-05-04 19:54 54.36753 0.81493 37546 ft 477 kts 295°
2026-05-04 19:54 54.38196 0.76373 37268 ft 477 kts 295°
2026-05-04 19:54 54.39640 0.71236 36991 ft 478 kts 295°
2026-05-04 19:54 54.41080 0.66103 36733 ft 477 kts 295°
2026-05-04 19:55 54.42520 0.60958 36482 ft 477 kts 295°
2026-05-04 19:55 54.43954 0.55818 36206 ft 477 kts 295°
2026-05-04 19:55 54.45384 0.50681 35945 ft 477 kts 295°
2026-05-04 19:55 54.46810 0.45540 35697 ft 477 kts 295°
2026-05-04 19:56 54.48239 0.40382 35440 ft 477 kts 295°
2026-05-04 19:56 54.49662 0.35236 35191 ft 476 kts 295°
2026-05-04 19:56 54.51081 0.30090 34943 ft 476 kts 295°
2026-05-04 19:56 54.52500 0.24937 34699 ft 476 kts 295°
2026-05-04 19:57 54.53915 0.19793 34455 ft 476 kts 295°
2026-05-04 19:57 54.55330 0.14639 34212 ft 476 kts 295°
2026-05-04 19:57 54.56752 0.09501 33963 ft 475 kts 296°
2026-05-04 19:57 54.58207 0.04374 33677 ft 475 kts 296°
2026-05-04 19:58 54.59665 -0.00753 33397 ft 476 kts 296°
2026-05-04 19:58 54.61119 -0.05887 33133 ft 476 kts 296°
2026-05-04 19:58 54.62568 -0.11027 32869 ft 477 kts 296°
2026-05-04 19:58 54.64017 -0.16184 32590 ft 478 kts 296°
2026-05-04 19:59 54.65469 -0.21365 32315 ft 479 kts 296°
2026-05-04 19:59 54.66916 -0.26545 32054 ft 480 kts 296°
2026-05-04 19:59 54.68348 -0.31681 31790 ft 480 kts 295°
2026-05-04 19:59 54.69790 -0.36868 31530 ft 479 kts 295°
2026-05-04 20:00 54.71226 -0.42043 31267 ft 477 kts 295°
2026-05-04 20:00 54.72659 -0.47219 31022 ft 475 kts 295°
2026-05-04 20:00 54.74082 -0.52373 30782 ft 473 kts 295°
2026-05-04 20:00 54.75494 -0.57497 30532 ft 472 kts 295°
2026-05-04 20:01 54.76905 -0.62630 30282 ft 470 kts 295°
2026-05-04 20:01 54.78307 -0.67740 30037 ft 468 kts 295°
2026-05-04 20:01 54.79696 -0.72814 29749 ft 466 kts 295°
2026-05-04 20:01 54.81081 -0.77889 29463 ft 464 kts 295°
2026-05-04 20:02 54.82455 -0.82931 29183 ft 461 kts 295°
2026-05-04 20:02 54.83819 -0.87946 28899 ft 459 kts 295°
2026-05-04 20:02 54.85176 -0.92947 28624 ft 457 kts 295°
2026-05-04 20:02 54.86523 -0.97925 28353 ft 454 kts 295°
2026-05-04 20:03 54.87846 -1.02821 28084 ft 452 kts 294°
2026-05-04 20:03 54.89172 -1.07743 27835 ft 450 kts 294°
2026-05-04 20:03 54.90495 -1.12662 27560 ft 448 kts 294°
2026-05-04 20:03 54.91812 -1.17566 27314 ft 447 kts 294°
2026-05-04 20:04 54.93124 -1.22467 27043 ft 445 kts 294°
2026-05-04 20:04 54.94423 -1.27328 26777 ft 443 kts 294°
2026-05-04 20:04 54.95718 -1.32184 26527 ft 441 kts 294°
2026-05-04 20:04 54.97006 -1.37023 26277 ft 439 kts 294°
2026-05-04 20:05 54.98286 -1.41843 26002 ft 437 kts 294°
2026-05-04 20:05 54.99559 -1.46648 25514 ft 436 kts 294°
2026-05-04 20:05 55.00822 -1.51422 24974 ft 432 kts 294°
2026-05-04 20:05 55.02074 -1.56170 24458 ft 429 kts 294°
2026-05-04 20:06 55.03313 -1.60876 23946 ft 426 kts 294°
2026-05-04 20:06 55.04542 -1.65553 23402 ft 423 kts 294°
2026-05-04 20:06 55.05759 -1.70194 22801 ft 419 kts 294°
2026-05-04 20:06 55.06953 -1.74757 22218 ft 416 kts 294°
2026-05-04 20:07 55.08146 -1.79326 21644 ft 412 kts 294°
2026-05-04 20:07 55.09328 -1.83858 21080 ft 409 kts 294°
2026-05-04 20:07 55.10501 -1.88371 20525 ft 405 kts 294°
2026-05-04 20:07 55.11663 -1.92839 19981 ft 402 kts 294°
2026-05-04 20:08 55.12942 -1.97185 19442 ft 400 kts 298°
2026-05-04 20:08 55.14311 -2.01386 18914 ft 397 kts 299°
2026-05-04 20:08 55.15697 -2.05563 18395 ft 394 kts 299°
2026-05-04 20:08 55.17065 -2.09694 17826 ft 391 kts 299°
2026-05-04 20:09 55.18422 -2.13806 17245 ft 388 kts 299°
2026-05-04 20:09 55.19760 -2.17873 16670 ft 384 kts 298°
2026-05-04 20:09 55.21083 -2.21908 16102 ft 380 kts 298°
2026-05-04 20:09 55.22392 -2.25905 15548 ft 377 kts 298°
2026-05-04 20:10 55.23689 -2.29877 15012 ft 374 kts 298°
2026-05-04 20:10 55.24972 -2.33813 14476 ft 370 kts 298°
2026-05-04 20:10 55.26245 -2.37724 13951 ft 367 kts 298°
2026-05-04 20:10 55.27507 -2.41606 13380 ft 364 kts 298°
2026-05-04 20:11 55.28734 -2.45391 12806 ft 361 kts 298°
2026-05-04 20:11 55.29970 -2.49205 12234 ft 357 kts 298°
2026-05-04 20:11 55.31187 -2.52973 11688 ft 354 kts 298°
2026-05-04 20:11 55.32392 -2.56706 11136 ft 348 kts 298°
2026-05-04 20:12 55.33588 -2.60413 10593 ft 340 kts 298°
2026-05-04 20:12 55.34726 -2.63948 10071 ft 333 kts 298°
2026-05-04 20:12 55.35855 -2.67463 9500 ft 326 kts 298°
2026-05-04 20:12 55.36960 -2.70904 8941 ft 320 kts 298°
2026-05-04 20:13 55.38042 -2.74279 8375 ft 314 kts 298°
2026-05-04 20:13 55.39104 -2.77597 7821 ft 309 kts 298°
2026-05-04 20:13 55.40150 -2.80868 7312 ft 303 kts 298°
2026-05-04 20:13 55.41161 -2.84034 7080 ft 290 kts 298°
2026-05-04 20:14 55.42115 -2.87025 7041 ft 270 kts 298°
2026-05-04 20:14 55.43010 -2.89836 7044 ft 259 kts 298°
2026-05-04 20:14 55.43894 -2.92620 7033 ft 263 kts 298°
2026-05-04 20:14 55.44810 -2.95414 7034 ft 264 kts 301°
2026-05-04 20:15 55.45911 -2.98012 7036 ft 265 kts 310°
2026-05-04 20:15 55.47269 -3.00210 7037 ft 267 kts 321°
2026-05-04 20:15 55.48861 -3.01929 7032 ft 268 kts 330°
2026-05-04 20:15 55.50548 -3.03336 6975 ft 268 kts 333°
2026-05-04 20:16 55.52249 -3.04689 6776 ft 267 kts 333°
2026-05-04 20:16 55.53937 -3.06034 6537 ft 266 kts 333°
2026-05-04 20:16 55.55623 -3.07386 6282 ft 265 kts 333°
2026-05-04 20:16 55.57297 -3.08737 6057 ft 263 kts 333°
2026-05-04 20:17 55.58935 -3.10064 6002 ft 260 kts 333°
2026-05-04 20:17 55.60520 -3.11346 6013 ft 243 kts 333°
2026-05-04 20:17 55.62040 -3.12576 6010 ft 239 kts 333°
2026-05-04 20:17 55.63553 -3.13805 6006 ft 239 kts 333°
2026-05-04 20:18 55.64765 -3.14791 6004 ft 239 kts 333°
2026-05-04 20:18 55.66275 -3.16023 6007 ft 239 kts 333°
2026-05-04 20:18 55.67303 -3.16860 5986 ft 239 kts 333°
2026-05-04 20:18 55.68889 -3.17777 5641 ft 241 kts 351°
2026-05-04 20:19 55.70542 -3.17413 5323 ft 243 kts 17°
2026-05-04 20:19 55.72058 -3.16209 5057 ft 240 kts 23°
2026-05-04 20:19 55.73543 -3.14876 4949 ft 238 kts 24°
2026-05-04 20:19 55.75011 -3.13561 4626 ft 237 kts 24°
2026-05-04 20:20 55.76486 -3.12242 4235 ft 237 kts 24°
2026-05-04 20:20 55.77969 -3.10918 3856 ft 238 kts 24°
2026-05-04 20:20 55.79450 -3.09612 3508 ft 238 kts 24°
2026-05-04 20:20 55.80939 -3.08319 3143 ft 238 kts 23°
2026-05-04 20:21 55.82411 -3.07041 3002 ft 230 kts 23°
2026-05-04 20:21 55.83832 -3.05805 2999 ft 226 kts 23°
2026-05-04 20:21 55.86804 -3.04150 2990 ft 219 kts
2026-05-04 20:22 55.88249 -3.03690 3017 ft 203 kts
2026-05-04 20:22 55.89623 -3.03263 3012 ft 200 kts
2026-05-04 20:22 55.90963 -3.02843 2997 ft 187 kts
2026-05-04 20:22 55.92213 -3.02445 3005 ft 181 kts
2026-05-04 20:23 55.93449 -3.02054 2996 ft 180 kts
2026-05-04 20:23 55.94694 -3.01784 2995 ft 179 kts 358°
2026-05-04 20:23 55.95934 -3.01937 2994 ft 178 kts 351°
2026-05-04 20:23 55.97141 -3.02213 2985 ft 167 kts 349°
2026-05-04 20:24 55.98254 -3.02481 3005 ft 158 kts 349°
2026-05-04 20:24 55.99334 -3.02745 2997 ft 156 kts 349°
2026-05-04 20:24 56.00413 -3.03013 2994 ft 156 kts 349°
2026-05-04 20:24 56.01467 -3.03372 2987 ft 156 kts 345°
2026-05-04 20:25 56.02522 -3.03815 2989 ft 156 kts 343°
2026-05-04 20:25 56.03555 -3.04399 2986 ft 155 kts 332°
2026-05-04 20:25 56.04369 -3.05622 2987 ft 154 kts 305°
2026-05-04 20:25 56.04675 -3.07422 2992 ft 155 kts 271°
2026-05-04 20:26 56.04390 -3.09297 2996 ft 159 kts 249°
2026-05-04 20:26 56.03843 -3.11010 2991 ft 158 kts 242°
2026-05-04 20:26 56.03281 -3.12707 2993 ft 159 kts 243°
2026-05-04 20:26 56.02711 -3.14407 2924 ft 160 kts 242°
2026-05-04 20:27 56.02138 -3.16110 2711 ft 158 kts 243°
2026-05-04 20:27 56.01587 -3.17746 2499 ft 148 kts 243°
2026-05-04 20:27 56.01074 -3.19267 2296 ft 137 kts 244°
2026-05-04 20:27 56.00594 -3.20702 2118 ft 134 kts 244°
2026-05-04 20:28 56.00117 -3.22112 1929 ft 132 kts 243°
2026-05-04 20:28 55.99663 -3.23447 1756 ft 122 kts 244°
2026-05-04 20:28 55.99235 -3.24720 1586 ft 115 kts 245°
2026-05-04 20:28 55.98829 -3.25932 1454 ft 115 kts 244°
2026-05-04 20:29 55.98414 -3.27159 1291 ft 115 kts 243°
2026-05-04 20:29 55.97999 -3.28377 1107 ft 114 kts 244°
2026-05-04 20:29 55.97592 -3.29589 948 ft 114 kts 243°
2026-05-04 20:29 55.97213 -3.30709 796 ft 115 kts 241°
2026-05-04 20:30 55.96795 -3.31944 644 ft 116 kts 242°
2026-05-04 20:30 55.96374 -3.33190 474 ft 119 kts 240°
2026-05-04 20:30 55.95943 -3.34464 323 ft 124 kts 243°
2026-05-04 20:30 55.95493 -3.35791 163 ft 121 kts 240°
2026-05-04 20:31 55.95087 -3.37004 115 ft 103 kts 240°
2026-05-04 20:31 55.94841 -3.37724 116 ft 38 kts 238°
2026-05-04 20:31 55.94755 -3.37972 117 ft 1 kts 238°
2026-05-04 20:31 55.94732 -3.38025 117 ft 9 kts 223°
2026-05-04 20:32 55.94668 -3.38018 116 ft 11 kts 160°
2026-05-04 20:32 55.94622 -3.37978 120 ft 6 kts 147°
2026-05-04 20:32 55.94604 -3.37902 119 ft 8 kts 82°
2026-05-04 20:32 55.94629 -3.37783 118 ft 13 kts 64°
2026-05-04 20:33 55.94681 -3.37621 118 ft 17 kts 59°
2026-05-04 20:33 55.94733 -3.37468 118 ft 11 kts 60°
2026-05-04 20:33 55.94782 -3.37320 118 ft 16 kts 59°
2026-05-04 20:33 55.94851 -3.37116 118 ft 21 kts 57°
2026-05-04 20:34 55.94921 -3.36911 118 ft 9 kts 59°
2026-05-04 20:34 55.94962 -3.36789 118 ft 14 kts 59°
2026-05-04 20:34 55.95023 -3.36610 118 ft 19 kts 59°
2026-05-04 20:34 55.95083 -3.36435 118 ft 13 kts 58°
2026-05-04 20:35 55.95125 -3.36307 118 ft 9 kts 65°
2026-05-04 20:35 55.95124 -3.36171 118 ft 13 kts 104°
2026-05-04 20:35 55.95097 -3.36018 118 ft 13 kts 111°
2026-05-04 20:35 55.95065 -3.35900 119 ft 5 kts 120°
2026-05-04 20:36 55.95031 -3.35853 117 ft 5 kts 162°
2026-05-04 20:36 55.94994 -3.35866 117 ft 7 kts 210°
2026-05-04 20:36 55.94973 -3.35922 119 ft 6 kts 245°
2026-05-04 20:36 55.94963 -3.35968 119 ft 2 kts 251°
2026-05-04 20:37 55.94957 -3.36000 119 ft 2 kts 252°
2026-05-04 20:37 55.94957 -3.36004 119 ft 0 kts 253°